CW7364 Weather Reports


Display with metric or nautical units.
time (UTC)temp
F
wind
direction
speed
MPH
gust
MPH
rain 1hr
in
rain 24hr
in
rain mn
in
humidity
%
barometer
mb
20260904050556 81 135 4.0 8.0 0.00 0.00 0.00 75 1012.1
20260904045516 81 135 5.0 9.0 0.00 0.00 0.00 75 1012.2
20260904044516 81 135 4.0 7.0 0.00 0.00 0.00 75 1012.2
20260904043516 81 135 4.0 8.0 0.00 0.00 0.00 75 1012.0
20260904042516 81 135 6.0 11.0 0.00 0.00 0.00 75 1012.0
20260904041516 81 135 6.0 10.0 0.00 0.00 0.00 75 1012.0
20260904040516 81 135 6.0 10.0 0.00 0.00 0.00 76 1012.0
20260904035516 82 135 7.0 10.0 0.00 0.00 0.00 77 1012.0
20260904034516 82 135 7.0 11.0 0.00 0.00 0.00 77 1011.9
20260904033516 82 135 5.0 10.0 0.00 0.00 0.00 76 1012.2
20260904032536 82 135 8.0 11.0 0.00 0.00 0.00 75 1012.0
20260904031516 82 135 7.0 10.0 0.00 0.00 0.00 72 1012.0
20260904030516 82 135 6.0 9.0 0.00 0.00 0.00 72 1011.9
20260904025536 83 135 5.0 9.0 0.00 0.00 0.00 73 1011.7
20260904024536 83 135 6.0 10.0 0.00 0.00 0.00 72 1011.7
20260904023516 83 135 8.0 13.0 0.00 0.00 0.00 73 1011.4
20260904022516 83 135 7.0 11.0 0.00 0.00 0.00 75 1011.2
20260904021516 82 135 5.0 9.0 0.00 0.00 0.00 77 1011.0
20260904020536 82 113 3.0 5.0 0.00 0.00 0.00 77 1010.7
20260904015515 82 135 3.0 5.0 0.00 0.00 0.00 77 1010.5
20260904014535 83 113 3.0 6.0 0.00 0.00 0.00 76 1010.4
20260904013516 83 135 4.0 9.0 0.00 0.00 0.00 76 1010.2
20260904012515 83 135 5.0 10.0 0.00 0.00 0.00 76 1010.1
20260904011535 84 135 5.0 9.0 0.00 0.00 0.00 76 1010.0
20260904010535 84 135 7.0 9.0 0.00 0.00 0.00 77 1009.8
20260904005515 84 113 7.0 11.0 0.00 0.00 0.00 77 1009.8
20260904004515 85 113 7.0 9.0 0.00 0.00 0.00 76 1009.8
20260904003515 85 113 5.0 9.0 0.00 0.00 0.00 77 1009.7
20260904002515 85 113 5.0 9.0 0.00 0.00 0.00 78 1009.6
20260904001515 85 113 6.0 10.0 0.00 0.00 0.00 77 1009.5
20260904000515 84 135 7.0 13.0 0.00 0.00 0.00 78 1009.5
20260903235515 83 113 8.0 12.0 0.00 0.00 0.00 79 1009.4
20260903234517 82 135 5.0 9.0 0.00 0.00 0.00 78 1009.5
20260903233517 82 135 7.0 13.0 0.00 0.00 0.00 78 1009.5
20260903232517 82 113 9.0 14.0 0.00 0.00 0.00 77 1009.5
20260903231517 83 90 10.0 16.0 0.00 0.00 0.00 75 1009.2
20260903230517 87 113 9.0 15.0 0.00 0.00 0.00 74 1009.2
20260903225517 91 113 13.0 19.0 0.00 0.00 0.00 63 1009.0
20260903224517 93 113 12.0 19.0 0.00 0.00 0.00 60 1009.4
20260903223537 94 113 9.0 13.0 0.00 0.00 0.00 58 1009.3
20260903222517 94 180 7.0 13.0 0.00 0.00 0.00 58 1009.2
20260903221517 94 135 10.0 15.0 0.00 0.00 0.00 58 1008.9
20260903220517 95 135 9.0 14.0 0.00 0.00 0.00 57 1009.2
20260903215517 95 158 8.0 15.0 0.00 0.00 0.00 57 1009.0
20260903214517 95 113 8.0 14.0 0.00 0.00 0.00 57 1009.0
20260903213517 95 158 6.0 12.0 0.00 0.00 0.00 57 1009.2
20260903212517 95 180 8.0 13.0 0.00 0.00 0.00 55 1009.2
20260903211516 96 135 8.0 14.0 0.00 0.00 0.00 55 1009.3
20260903210516 96 135 8.0 17.0 0.00 0.00 0.00 55 1009.4
20260903205536 97 158 6.0 10.0 0.00 0.00 0.00 54 1009.6
20260903204517 97 135 6.0 15.0 0.00 0.00 0.00 54 1009.7
20260903203516 95 158 7.0 11.0 0.00 0.00 0.00 56 1009.9
20260903202516 95 135 6.0 12.0 0.00 0.00 0.00 56 1010.0
20260903201516 95 135 9.0 14.0 0.00 0.00 0.00 56 1010.1
20260903200517 95 135 7.0 12.0 0.00 0.00 0.00 56 1010.2
20260903195516 95 158 8.0 16.0 0.00 0.00 0.00 56 1010.3
20260903194516 94 113 7.0 12.0 0.00 0.00 0.00 58 1010.4
20260903193516 95 135 7.0 14.0 0.00 0.00 0.00 57 1010.5
20260903192536 94 158 7.0 13.0 0.00 0.00 0.00 59 1010.7
20260903191516 94 158 7.0 15.0 0.00 0.00 0.00 59 1011.0
20260903190516 94 135 7.0 16.0 0.00 0.00 0.00 59 1011.1
20260903185516 94 135 7.0 12.0 0.00 0.00 0.00 58 1011.2
20260903184516 94 135 7.0 12.0 0.00 0.00 0.00 60 1011.4
20260903183516 94 135 8.0 14.0 0.00 0.00 0.00 59 1011.5
20260903182516 94 135 8.0 12.0 0.00 0.00 0.00 59 1011.7
20260903181516 92 135 9.0 13.0 0.00 0.00 0.00 61 1011.8
20260903180516 92 135 9.0 13.0 0.00 0.00 0.00 61 1011.8
20260903175536 91 113 8.0 13.0 0.00 0.00 0.00 63 1011.9
20260903174516 91 158 6.0 13.0 0.00 0.00 0.00 64 1012.1
20260903173516 89 113 7.0 11.0 0.00 0.00 0.00 65 1012.1
20260903172516 88 113 8.0 13.0 0.00 0.00 0.00 66 1012.3
20260903171516 88 135 7.0 11.0 0.00 0.00 0.00 66 1012.4
20260903170516 89 113 8.0 14.0 0.00 0.00 0.00 65 1012.5
20260903165516 89 135 5.0 12.0 0.00 0.00 0.00 65 1012.5
20260903164516 88 180 5.0 9.0 0.00 0.00 0.00 67 1012.6
20260903163516 87 180 4.0 9.0 0.00 0.00 0.00 70 1012.7
20260903162516 85 135 6.0 10.0 0.00 0.00 0.00 71 1012.8
20260903161516 86 135 8.0 13.0 0.00 0.00 0.00 69 1012.8
20260903160515 85 135 7.0 12.0 0.00 0.00 0.00 71 1012.8
20260903155516 84 180 6.0 11.0 0.00 0.00 0.00 73 1012.8
20260903154516 84 158 8.0 14.0 0.00 0.00 0.00 73 1012.7
20260903153515 83 158 6.0 12.0 0.00 0.00 0.00 75 1012.7
20260903152515 81 135 8.0 13.0 0.00 0.00 0.00 76 1012.7
20260903151516 82 135 8.0 12.0 0.00 0.00 0.00 75 1012.7
20260903150515 83 135 8.0 11.0 0.00 0.00 0.00 73 1012.7
20260903145515 85 113 8.0 14.0 0.00 0.00 0.00 71 1012.7
20260903144515 84 135 7.0 12.0 0.00 0.00 0.00 71 1012.8
20260903143515 83 135 5.0 11.0 0.00 0.00 0.00 73 1012.7
20260903142515 83 158 6.0 11.0 0.00 0.00 0.00 73 1012.6
20260903141515 82 135 8.0 11.0 0.00 0.00 0.00 74 1012.7
20260903140517 82 135 5.0 9.0 0.00 0.00 0.00 74 1012.7
20260903135517 81 135 5.0 8.0 0.00 0.00 0.00 75 1012.7
20260903134517 81 135 5.0 7.0 0.00 0.00 0.00 76 1012.8
20260903133517 80 135 5.0 8.0 0.00 0.00 0.00 78 1012.9
20260903132517 79 135 4.0 7.0 0.00 0.00 0.00 80 1012.9
20260903131517 78 135 2.0 3.0 0.00 0.00 0.00 82 1012.8
20260903130535 77 0.0 3.0 0.00 0.00 0.00 83 1012.8
20260903125537 76 0.0 0.0 0.00 0.00 0.00 85 1012.7
20260903124517 75 0.0 0.0 0.00 0.00 0.00 87 1012.6
20260903123517 75 0.0 2.0 0.00 0.00 0.00 86 1012.6
20260903122517 74 135 1.0 3.0 0.00 0.00 0.00 87 1012.5
20260903121537 74 113 2.0 3.0 0.00 0.00 0.00 87 1012.5
20260903120517 74 0.0 2.0 0.00 0.00 0.00 87 1012.3
20260903115517 74 90 2.0 6.0 0.00 0.00 0.00 87 1012.3
20260903114517 74 90 3.0 5.0 0.00 0.00 0.00 87 1012.2
20260903113517 74 90 3.0 4.0 0.00 0.00 0.00 87 1012.3
20260903112517 74 90 2.0 4.0 0.00 0.00 0.00 87 1012.2
20260903111517 74 90 1.0 2.0 0.00 0.00 0.00 87 1012.1
20260903110517 74 0.0 1.0 0.00 0.00 0.00 87 1012.2
20260903105517 74 0.0 1.0 0.00 0.00 0.00 87 1012.2
20260903104517 73 0.0 2.0 0.00 0.00 0.00 87 1012.3
20260903103517 73 90 1.0 2.0 0.00 0.00 0.00 87 1012.2
20260903102536 73 90 2.0 4.0 0.00 0.00 0.00 87 1012.1
20260903101516 73 90 1.0 3.0 0.00 0.00 0.00 86 1012.1
20260903100516 73 90 1.0 3.0 0.00 0.00 0.00 85 1012.1
20260903095516 74 113 2.0 3.0 0.00 0.00 0.00 84 1012.2
20260903094516 74 0.0 0.0 0.00 0.00 0.00 84 1012.2
20260903093516 74 0.0 0.0 0.00 0.00 0.00 83 1012.3
20260903092516 75 0.0 0.0 0.00 0.00 0.00 83 1012.3
20260903091516 75 0.0 0.0 0.00 0.00 0.00 82 1012.3
20260903090516 76 0.0 0.0 0.00 0.00 0.00 82 1012.3
20260903085516 76 113 1.0 3.0 0.00 0.00 0.00 81 1012.2
20260903084516 76 113 2.0 4.0 0.00 0.00 0.00 81 1012.1
20260903083516 77 113 3.0 4.0 0.00 0.00 0.00 81 1012.1
20260903082516 77 113 3.0 6.0 0.00 0.00 0.00 81 1012.0
20260903081536 77 90 2.0 3.0 0.00 0.00 0.00 80 1012.0
20260903080516 77 113 3.0 6.0 0.00 0.00 0.00 79 1012.1
20260903075536 77 113 3.0 4.0 0.00 0.00 0.00 79 1012.2
20260903074516 78 135 2.0 3.0 0.00 0.00 0.00 77 1012.3
20260903073516 78 135 3.0 6.0 0.00 0.00 0.00 77 1012.3
20260903072516 78 113 2.0 4.0 0.00 0.00 0.00 76 1012.3
20260903071536 79 135 2.0 4.0 0.00 0.00 0.00 75 1012.4
20260903070516 79 113 4.0 7.0 0.00 0.00 0.00 74 1012.5
20260903065516 79 135 5.0 8.0 0.00 0.00 0.00 74 1012.5
20260903064516 80 135 3.0 4.0 0.00 0.00 0.00 73 1012.5
20260903063516 80 113 4.0 7.0 0.00 0.00 0.00 72 1012.5
20260903062556 80 113 3.0 6.0 0.00 0.00 0.00 71 1012.6
20260903061515 81 113 3.0 5.0 0.00 0.00 0.00 71 1012.6
20260903060515 81 113 4.0 7.0 0.00 0.00 0.00 70 1012.6
20260903055516 81 113 4.0 6.0 0.00 0.00 0.00 69 1012.7
20260903054516 82 113 5.0 8.0 0.00 0.00 0.00 68 1012.8
20260903053516 83 113 6.0 9.0 0.00 0.00 0.00 67 1012.8
20260903052515 83 113 7.0 12.0 0.00 0.00 0.00 66 1012.8
20260903051515 84 113 7.0 11.0 0.00 0.00 0.00 66 1012.8